SCP
-0 -0 -0 -0 -0 0 0 0 -0 -0 -0 -0 -0 0 0 0 0 0 0 0 0 0 0 0 0 0 0 0 0 0 0 0 0 0 0 0 0 0 0 0 0 0 0 0 -0
-0 -0 -0 -0 -0 -0 0 0 0 0 0 0 0 0 0 0 0 0 0 -0 -0 0 0 0 0 0 0 0 0 0 0 0 0 0 0 0 0 0 0 0 0 0 0 0 -0
-0 -0 -0 -0 -0 0 0 0 0 0 0 0 -0 0 0 0 0 0 0 -0 -0 0 0 0 0 0 0 0 0 0 0 0 0 0 0 0 0 0 0 0 0 0 0 0 0
-0 -0 -0 -0 -0 0 0 0 0 0 0 0 -0 -0 -0 0 0 0 -0 -0 -0 -0 -0 -0 0 0 0 0 0 0 0 0 0 0 0 0 0 0 0 0 0 0 0 0 0
-0 -0 -0 -0 0 0 0 0 0 0 -0 -0 -0 -0 -0 0 -0 -0 -0 -0 -0 0 0 0 0 0 0 0 0 0 0 0 0 0 0 0 0 0 0 0 0 0 0 0 0
-0 -0 -0 0 0 0 -0 0 0 0 -0 -0 -0 -0 -0 0 -0 -0 -0 -0 -0 0 0 0 0 0 0 0 0 0 0 0 0 0 0 0 0 0 0 -0 0 0 0 0 0
-0 -0 -0 -0 -0 -0 -0 0 0 0 -0 -0 -0 -0 -0 -0 -0 -0 0 -0 -0 0 0 0 0 0 0 0 0 0 0 0 0 0 0 0 0 0 -0 -0 -0 0 0 0 0
-0 -0 0 -0 -0 -0 -0 0 0 -0 -0 -0 -0 -0 -0 -0 -0 0 0 0 0 0 0 0 0 0 0 0 0 0 0 0 0 0 0 0 0 0 0 0 0 0 0 0 0
-0 -0 0 -0 -0 -0 -0 -0 0 0 -0 -0 -0 0 -0 -0 0 0 0 0 0 0 0 0 0 0 0 0 0 0 0 0 0 0 0 0 0 0 0 0 0 0 0 0 0
-0 0 0 -0 -0 -0 -0 0 0 0 0 0 0 0 0 0 0 0 0 0 0 0 0 0 0 0 0 0 0 0 0 0 0 0 0 0 0 0 0 0 0 0 0 0 0
-0 0 0 0 -0 0 0 0 0 0 0 0 0 0 0 0 0 0 0 0 0 0 0 0 0 0 0 0 0 0 0 0 0 0 0 0 0 0 -0 0 0 0 0 0 0
0 0 0 0 -0 0 0 0 0 0 0 0 0 0 0 0 0 0 0 0 0 0 0 0 0 0 0 0 0 0 0 0 0 0 0 0 0 0 -0 -0 0 0 0 0 0
0 0 0 -0 -0 0 0 0 0 0 0 0 0 0 0 0 0 0 0 0 0 0 0 0 0 0 0 0 0 0 0 0 0 0 0 0 0 -0 -0 -0 -0 0 0 0 0
0 0 0 -0 0 0 0 0 0 0 0 0 0 0 0 0 0 0 0 0 0 0 0 0 0 0 0 0 0 0 0 0 0 0 0 0 -0 -0 -0 0 0 0 0 0 0
0 0 -0 -0 0 0 0 0 0 0 0 0 0 0 0 0 0 0 0 0 0 0 0 0 0 0 0 0 0 0 0 0 0 0 0 0 0 -0 -0 0 0 0 0 0 0
0 0 0 0 0 0 0 0 0 0 0 0 0 0 0 0 0 0 0 0 0 0 0 0 0 0 0 0 0 0 0 0 0 0 0 0 0 -0 -0 -0 0 0 0 0 0
0 0 0 0 0 0 0 0 0 0 0 0 0 0 0 0 0 0 0 0 0 0 0 0 0 0 0 0 0 0 0 0 0 0 0 0 0 0 0 0 0 0 0 0 0
0 0 0 0 0 0 0 0 0 0 0 0 0 0 0 0 0 0 0 0 0 0 0 0 0 0 0 0 0 -0 0 0 0 0 0 0 0 0 -0 0 0 0 0 0 0
0 0 0 0 0 0 0 0 0 0 0 0 0 0 0 0 0 0 0 0 0 0 0 0 0 0 0 0 0 0 0 0 0 0 0 0 0 0 -0 0 0 0 0 0 0
0 0 0 0 0 0 0 0 0 0 0 0 0 0 0 0 0 0 0 0 0 0 0 0 0 0 0 0 0 0 0 0 0 0 0 -0 -0 0 0 0 0 0 0 0 0
0 0 0 0 0 0 0 0 0 0 0 0 0 0 0 0 0 0 0 0 0 0 0 0 0 0 0 0 0 0 0 0 0 0 -0 0 -0 0 0 0 0 0 0 0 0
0 0 0 0 0 0 0 0 0 0 0 0 0 0 0 0 0 0 0 0 0 0 0 0 0 0 0 -0 0 0 0 0 0 0 0 0 0 0 -0 0 0 0 0 -0 -0
0 0 0 0 0 0 0 0 0 0 0 0 0 0 0 0 0 0 0 0 0 0 0 0 0 0 0 0 0 0 0 0 0 0 0 0 0 0 0 0 0 0 -0 -0 -0
0 0 0 0 0 0 0 0 0 0 0 0 0 0 0 0 0 0 0 0 0 0 0 0 0 0 0 0 0 0 0 0 0 0 0 0 0 0 0 0 0 0 0 -0 -0
0 0 0 0 0 0 0 0 0 0 0 0 0 0 0 0 0 0 0 0 0 0 0 0 0 0 0 0 0 0 0 0 0 0 0 0 0 0 0 0 0 -0 -0 0 -0
0 0 0 0 0 0 0 0 0 0 0 0 0 0 0 0 0 0 0 0 0 0 0 0 0 0 0 0 0 0 0 0 0 0 0 0 0 0 0 0 0 -0 0 0 -0
0 0 0 0 0 0 0 0 0 0 0 0 0 0 0 0 0 0 0 0 0 0 0 0 0 0 0 0 0 0 0 0 0 0 0 0 0 -0 -0 -0 0 0 0 0 -0
Wind_Speed_500mb
46 40 32 26 23 22 23 25 29 32 34 29 30 28 19 16 21 29 30 23 25 27 21 13 11 13 10 10 8 6 8 0 6 4 10 21 10 30 26 28 15 21 21 20 22
49 41 33 27 23 20 20 23 28 29 32 29 28 24 14 8 16 28 29 24 21 25 26 25 23 14 9 9 7 9 7 11 8 6 10 22 20 39 12 25 19 28 23 13 17
53 43 36 30 25 19 21 24 27 28 33 28 31 20 10 8 12 16 22 22 18 22 23 26 28 17 11 9 11 2 6 6 11 12 13 14 24 22 10 11 28 23 18 19 26
56 45 39 34 26 20 20 23 24 26 29 31 31 12 10 10 7 14 15 22 20 23 25 20 26 8 6 7 6 2 17 10 16 40 29 8 20 19 18 26 28 29 28 16 31
62 45 37 31 26 22 21 22 22 27 26 25 27 14 13 16 13 13 9 12 14 18 20 22 22 8 4 5 10 5 4 23 38 51 48 41 24 22 31 46 41 33 24 28 39
65 49 34 30 26 22 21 21 24 32 21 20 20 14 13 11 9 6 5 5 13 18 20 19 14 17 5 6 3 9 22 29 31 50 37 16 21 11 38 26 30 40 44 44 43
66 57 35 26 23 22 23 26 30 29 12 19 14 14 16 11 4 6 7 5 7 12 18 17 17 13 16 12 7 17 13 13 7 5 12 8 13 11 32 37 27 45 39 35 39
67 59 39 25 18 20 23 32 36 15 19 12 10 9 7 12 13 17 18 20 15 20 26 25 26 22 10 12 13 12 5 10 11 10 10 1 18 16 62 34 60 51 39 47 43
70 61 41 24 12 19 25 31 23 14 21 13 8 8 5 16 21 21 22 30 37 34 34 29 24 13 3 4 9 7 16 11 17 11 9 3 24 22 50 67 49 54 58 44 40
71 64 39 22 11 18 27 21 11 9 21 7 14 4 13 21 32 37 37 33 36 40 39 12 9 2 5 7 17 24 16 18 23 9 16 29 33 39 29 43 49 50 58 47 32
72 61 33 18 11 15 31 14 16 6 16 7 13 5 15 33 23 30 42 23 21 17 7 6 2 14 26 27 32 20 17 30 29 25 11 32 33 50 26 33 39 46 55 51 46
69 47 27 17 11 19 26 18 17 12 15 10 8 12 14 24 7 34 43 23 5 4 8 8 11 24 13 15 20 23 26 34 31 25 14 24 35 52 31 27 45 51 53 56 53
66 31 29 17 10 22 20 24 18 14 3 9 3 17 17 18 5 13 41 18 2 7 17 10 14 10 19 25 27 28 19 30 27 8 12 13 43 46 33 39 49 58 65 59 54
56 25 30 20 10 23 19 24 19 10 8 9 6 6 29 21 6 7 26 15 5 13 9 12 9 15 25 22 17 19 9 13 11 7 13 8 29 41 19 34 27 34 52 65 67
44 18 32 32 23 27 29 35 11 2 4 13 6 9 25 8 11 10 22 22 9 12 3 15 11 31 31 12 6 12 8 12 14 21 11 13 12 18 5 16 19 20 56 62 58
35 7 25 32 29 34 41 17 7 10 5 10 8 15 11 8 8 16 15 22 12 4 7 18 17 9 12 8 6 5 8 26 9 4 12 23 24 15 8 13 11 15 42 52 48
29 10 21 28 32 32 35 2 10 7 10 11 9 12 5 10 8 5 9 16 1 11 10 17 8 11 8 7 6 12 10 7 9 6 12 3 9 26 18 24 17 20 33 34 29
25 8 23 35 32 23 26 10 8 3 10 11 13 12 8 8 10 5 9 10 6 6 5 8 31 4 3 10 16 15 11 5 11 7 8 12 12 12 20 26 34 30 29 20 30
22 3 21 28 26 24 14 9 10 4 8 12 16 4 6 4 9 12 7 7 9 14 2 10 20 21 29 39 7 2 7 3 9 12 15 10 11 18 28 25 20 23 25 25 24
32 10 19 30 25 18 10 7 5 6 10 5 6 2 15 16 7 12 7 10 6 11 9 11 38 7 3 6 15 14 7 2 6 7 12 9 9 19 14 17 12 10 14 18 23
23 5 20 31 16 8 7 7 9 19 15 6 7 10 10 11 7 7 13 12 3 6 17 8 11 18 15 8 7 3 5 10 5 7 7 9 10 13 15 15 11 11 17 21 32
23 7 27 31 12 8 3 7 15 10 18 9 5 3 6 11 10 9 11 12 25 3 13 9 8 17 31 41 20 12 13 9 8 6 10 9 19 16 36 6 7 7 24 32 34
28 12 20 23 7 7 14 11 12 12 9 7 6 3 5 6 14 7 14 18 17 8 10 6 6 16 11 3 4 5 9 15 20 12 34 29 16 4 3 12 21 32 30 36 55
18 9 12 18 14 6 7 8 11 23 14 22 16 9 8 20 17 18 40 18 23 27 53 19 8 15 24 28 28 40 37 30 29 17 31 36 62 35 38 39 25 48 59 55 55
17 6 6 8 7 11 4 7 9 15 7 25 8 3 25 22 41 17 10 34 33 23 2 5 14 19 25 36 42 49 49 48 44 48 38 52 50 41 31 25 33 50 53 51 52
11 13 13 37 16 5 4 6 7 15 11 17 8 34 30 26 32 51 31 37 20 3 5 5 11 11 24 42 35 46 42 36 43 48 49 55 48 23 33 32 40 51 36 35 46
15 14 13 14 7 6 6 8 14 38 23 22 32 31 29 31 38 64 79 76 41 21 7 7 7 9 35 20 36 18 8 2 7 9 12 28 40 41 48 48 37 49 49 49 61
Wind_Direction_500mb
6 2 360 355 352 354 357 359 360 4 6 10 12 11 27 62 65 61 48 55 64 63 59 54 25 29 66 70 70 85 61 213 258 280 253 297 324 309 294 282 288 291 302 319 339
11 8 5 358 351 347 352 354 357 5 7 9 4 5 18 68 82 55 39 48 63 53 49 45 41 56 66 46 46 76 106 228 222 264 293 321 308 294 268 269 281 270 284 315 332
14 13 10 5 356 353 353 353 355 1 1 358 353 351 20 70 109 36 42 58 65 48 40 38 28 39 59 40 26 11 191 211 272 306 331 289 309 320 240 287 268 250 282 301 308
14 13 13 13 13 9 1 356 356 358 -0 359 2 21 72 76 92 49 70 67 65 58 50 35 29 58 60 12 341 292 254 245 299 310 316 262 292 297 263 271 289 283 278 290 304
12 11 14 17 15 10 3 1 3 356 357 5 20 58 78 83 84 54 79 58 41 29 22 16 21 38 26 254 315 180 276 302 298 300 293 288 246 246 272 287 290 281 251 280 292
12 7 9 13 13 12 11 3 351 352 360 8 27 62 87 87 88 41 45 18 3 356 353 346 340 339 297 266 145 244 273 277 289 279 273 249 260 183 268 291 281 285 285 290 289
9 6 2 7 15 16 9 359 346 345 3 0 35 85 84 83 64 353 352 342 316 321 321 341 309 298 313 313 311 289 303 335 273 281 275 282 300 220 288 306 310 318 313 316 309
5 3 357 357 7 6 355 346 345 3 18 33 55 82 92 26 11 359 316 316 296 291 296 304 305 275 258 284 331 342 48 350 283 312 303 327 282 286 300 316 315 306 308 315 314
360 359 354 349 353 360 356 346 357 41 10 55 77 59 64 350 347 338 325 302 292 287 292 293 284 248 212 52 350 340 277 263 298 180 283 170 288 280 301 301 290 294 301 305 309
356 355 350 352 13 18 3 355 24 37 6 60 42 41 27 341 332 343 339 312 289 278 291 232 201 116 46 97 267 279 267 259 271 268 287 287 277 276 280 281 277 280 292 292 299
356 354 352 2 27 14 8 15 12 4 6 348 322 271 302 346 357 16 17 14 300 275 258 341 81 243 238 217 249 265 256 261 272 272 271 274 281 279 281 259 267 274 283 278 282
356 358 8 12 34 23 19 51 27 333 315 358 349 337 349 335 353 22 8 13 360 313 315 339 243 256 311 288 266 264 261 264 270 269 221 271 275 278 281 257 255 263 261 270 274
357 14 13 12 39 11 18 23 352 337 284 311 15 23 11 340 57 24 25 352 12 263 282 236 261 318 319 306 287 277 259 271 264 285 250 279 277 285 284 262 260 252 258 262 261
359 36 36 39 41 17 14 356 342 343 59 309 0 5 356 339 23 20 2 3 297 285 285 259 262 311 314 299 273 286 298 309 289 329 278 131 288 287 266 262 245 248 248 252 259
1 51 37 34 26 12 350 335 325 351 357 311 333 341 1 36 311 330 346 337 248 271 82 258 287 312 310 248 302 260 307 275 270 272 285 223 259 274 165 272 257 234 246 258 265
2 28 18 13 12 355 353 348 120 45 287 332 332 331 1 286 278 304 301 316 293 245 225 253 283 236 226 276 266 357 336 317 313 213 250 214 204 271 226 228 252 239 244 263 270
6 33 11 358 347 348 352 341 34 107 6 310 314 320 320 265 286 269 311 319 273 356 309 301 251 268 217 258 319 57 358 300 332 209 237 295 281 256 281 270 252 259 270 281 293
3 42 25 6 354 352 356 54 74 287 276 308 295 287 268 343 264 294 282 294 262 195 322 309 314 224 111 204 289 285 184 220 253 244 267 324 252 260 251 268 287 285 278 296 329
354 331 3 5 360 357 360 57 191 236 304 295 313 298 281 320 274 360 269 248 245 173 194 326 285 298 276 279 213 181 200 210 265 234 267 228 297 290 260 272 278 272 277 298 343
350 273 352 345 352 352 69 227 221 227 318 313 299 298 313 324 332 349 286 246 253 191 189 242 295 269 332 276 219 162 167 255 207 270 262 261 242 236 279 285 298 337 343 323 343
360 14 351 348 332 39 115 243 278 303 333 290 264 283 280 308 274 262 255 291 202 265 195 257 218 277 319 252 204 129 248 224 251 226 269 288 242 223 240 258 286 298 325 341 345
3 17 345 347 43 20 24 305 304 293 347 286 271 247 296 316 277 256 252 248 303 335 284 229 252 279 285 283 302 230 242 206 232 244 241 256 251 265 271 259 174 264 304 319 319
348 324 353 4 69 349 323 308 291 325 319 316 295 38 293 296 332 247 265 278 297 344 271 192 248 298 297 84 198 253 220 213 235 252 249 262 260 73 222 305 328 324 323 314 313
0 355 358 50 96 91 333 284 308 328 305 9 311 348 358 317 275 279 286 295 312 290 288 230 228 238 281 277 295 285 267 255 257 257 275 251 272 276 279 297 330 314 302 303 312
19 12 8 315 342 326 227 270 285 329 288 319 274 280 343 310 309 262 253 295 299 290 59 205 259 256 250 271 283 274 275 273 262 263 260 276 271 273 286 296 298 292 283 285 293
31 5 339 299 294 303 295 263 277 355 310 301 261 321 309 288 275 293 296 295 277 316 180 230 274 267 275 285 276 281 276 265 266 265 265 265 273 273 269 268 283 275 260 267 279
10 357 325 284 306 301 237 279 321 325 287 279 313 299 289 283 280 289 280 275 263 261 227 230 266 279 294 303 305 290 299 261 300 288 278 286 289 296 289 285 275 269 263 265 273
Wind_Speed_850mb
46 40 32 26 23 22 23 25 29 32 34 29 30 28 19 16 21 29 30 23 25 27 21 13 11 13 10 10 8 6 8 0 6 4 10 21 10 30 26 28 15 21 21 20 22
49 41 33 27 23 20 20 23 28 29 32 29 28 24 14 8 16 28 29 24 21 25 26 25 23 14 9 9 7 9 7 11 8 6 10 22 20 39 12 25 19 28 23 13 17
53 43 36 30 25 19 21 24 27 28 33 28 31 20 10 8 12 16 22 22 18 22 23 26 28 17 11 9 11 2 6 6 11 12 13 14 24 22 10 11 28 23 18 19 26
56 45 39 34 26 20 20 23 24 26 29 31 31 12 10 10 7 14 15 22 20 23 25 20 26 8 6 7 6 2 17 10 16 40 29 8 20 19 18 26 28 29 28 16 31
62 45 37 31 26 22 21 22 22 27 26 25 27 14 13 16 13 13 9 12 14 18 20 22 22 8 4 5 10 5 4 23 38 51 48 41 24 22 31 46 41 33 24 28 39
65 49 34 30 26 22 21 21 24 32 21 20 20 14 13 11 9 6 5 5 13 18 20 19 14 17 5 6 3 9 22 29 31 50 37 16 21 11 38 26 30 40 44 44 43
66 57 35 26 23 22 23 26 30 29 12 19 14 14 16 11 4 6 7 5 7 12 18 17 17 13 16 12 7 17 13 13 7 5 12 8 13 11 32 37 27 45 39 35 39
67 59 39 25 18 20 23 32 36 15 19 12 10 9 7 12 13 17 18 20 15 20 26 25 26 22 10 12 13 12 5 10 11 10 10 1 18 16 62 34 60 51 39 47 43
70 61 41 24 12 19 25 31 23 14 21 13 8 8 5 16 21 21 22 30 37 34 34 29 24 13 3 4 9 7 16 11 17 11 9 3 24 22 50 67 49 54 58 44 40
71 64 39 22 11 18 27 21 11 9 21 7 14 4 13 21 32 37 37 33 36 40 39 12 9 2 5 7 17 24 16 18 23 9 16 29 33 39 29 43 49 50 58 47 32
72 61 33 18 11 15 31 14 16 6 16 7 13 5 15 33 23 30 42 23 21 17 7 6 2 14 26 27 32 20 17 30 29 25 11 32 33 50 26 33 39 46 55 51 46
69 47 27 17 11 19 26 18 17 12 15 10 8 12 14 24 7 34 43 23 5 4 8 8 11 24 13 15 20 23 26 34 31 25 14 24 35 52 31 27 45 51 53 56 53
66 31 29 17 10 22 20 24 18 14 3 9 3 17 17 18 5 13 41 18 2 7 17 10 14 10 19 25 27 28 19 30 27 8 12 13 43 46 33 39 49 58 65 59 54
56 25 30 20 10 23 19 24 19 10 8 9 6 6 29 21 6 7 26 15 5 13 9 12 9 15 25 22 17 19 9 13 11 7 13 8 29 41 19 34 27 34 52 65 67
44 18 32 32 23 27 29 35 11 2 4 13 6 9 25 8 11 10 22 22 9 12 3 15 11 31 31 12 6 12 8 12 14 21 11 13 12 18 5 16 19 20 56 62 58
35 7 25 32 29 34 41 17 7 10 5 10 8 15 11 8 8 16 15 22 12 4 7 18 17 9 12 8 6 5 8 26 9 4 12 23 24 15 8 13 11 15 42 52 48
29 10 21 28 32 32 35 2 10 7 10 11 9 12 5 10 8 5 9 16 1 11 10 17 8 11 8 7 6 12 10 7 9 6 12 3 9 26 18 24 17 20 33 34 29
25 8 23 35 32 23 26 10 8 3 10 11 13 12 8 8 10 5 9 10 6 6 5 8 31 4 3 10 16 15 11 5 11 7 8 12 12 12 20 26 34 30 29 20 30
22 3 21 28 26 24 14 9 10 4 8 12 16 4 6 4 9 12 7 7 9 14 2 10 20 21 29 39 7 2 7 3 9 12 15 10 11 18 28 25 20 23 25 25 24
32 10 19 30 25 18 10 7 5 6 10 5 6 2 15 16 7 12 7 10 6 11 9 11 38 7 3 6 15 14 7 2 6 7 12 9 9 19 14 17 12 10 14 18 23
23 5 20 31 16 8 7 7 9 19 15 6 7 10 10 11 7 7 13 12 3 6 17 8 11 18 15 8 7 3 5 10 5 7 7 9 10 13 15 15 11 11 17 21 32
23 7 27 31 12 8 3 7 15 10 18 9 5 3 6 11 10 9 11 12 25 3 13 9 8 17 31 41 20 12 13 9 8 6 10 9 19 16 36 6 7 7 24 32 34
28 12 20 23 7 7 14 11 12 12 9 7 6 3 5 6 14 7 14 18 17 8 10 6 6 16 11 3 4 5 9 15 20 12 34 29 16 4 3 12 21 32 30 36 55
18 9 12 18 14 6 7 8 11 23 14 22 16 9 8 20 17 18 40 18 23 27 53 19 8 15 24 28 28 40 37 30 29 17 31 36 62 35 38 39 25 48 59 55 55
17 6 6 8 7 11 4 7 9 15 7 25 8 3 25 22 41 17 10 34 33 23 2 5 14 19 25 36 42 49 49 48 44 48 38 52 50 41 31 25 33 50 53 51 52
11 13 13 37 16 5 4 6 7 15 11 17 8 34 30 26 32 51 31 37 20 3 5 5 11 11 24 42 35 46 42 36 43 48 49 55 48 23 33 32 40 51 36 35 46
15 14 13 14 7 6 6 8 14 38 23 22 32 31 29 31 38 64 79 76 41 21 7 7 7 9 35 20 36 18 8 2 7 9 12 28 40 41 48 48 37 49 49 49 61
Wind_Direction_850mb
6 2 360 355 352 354 357 359 360 4 6 10 12 11 27 62 65 61 48 55 64 63 59 54 25 29 66 70 70 85 61 213 258 280 253 297 324 309 294 282 288 291 302 319 339
11 8 5 358 351 347 352 354 357 5 7 9 4 5 18 68 82 55 39 48 63 53 49 45 41 56 66 46 46 76 106 228 222 264 293 321 308 294 268 269 281 270 284 315 332
14 13 10 5 356 353 353 353 355 1 1 358 353 351 20 70 109 36 42 58 65 48 40 38 28 39 59 40 26 11 191 211 272 306 331 289 309 320 240 287 268 250 282 301 308
14 13 13 13 13 9 1 356 356 358 -0 359 2 21 72 76 92 49 70 67 65 58 50 35 29 58 60 12 341 292 254 245 299 310 316 262 292 297 263 271 289 283 278 290 304
12 11 14 17 15 10 3 1 3 356 357 5 20 58 78 83 84 54 79 58 41 29 22 16 21 38 26 254 315 180 276 302 298 300 293 288 246 246 272 287 290 281 251 280 292
12 7 9 13 13 12 11 3 351 352 360 8 27 62 87 87 88 41 45 18 3 356 353 346 340 339 297 266 145 244 273 277 289 279 273 249 260 183 268 291 281 285 285 290 289
9 6 2 7 15 16 9 359 346 345 3 0 35 85 84 83 64 353 352 342 316 321 321 341 309 298 313 313 311 289 303 335 273 281 275 282 300 220 288 306 310 318 313 316 309
5 3 357 357 7 6 355 346 345 3 18 33 55 82 92 26 11 359 316 316 296 291 296 304 305 275 258 284 331 342 48 350 283 312 303 327 282 286 300 316 315 306 308 315 314
360 359 354 349 353 360 356 346 357 41 10 55 77 59 64 350 347 338 325 302 292 287 292 293 284 248 212 52 350 340 277 263 298 180 283 170 288 280 301 301 290 294 301 305 309
356 355 350 352 13 18 3 355 24 37 6 60 42 41 27 341 332 343 339 312 289 278 291 232 201 116 46 97 267 279 267 259 271 268 287 287 277 276 280 281 277 280 292 292 299
356 354 352 2 27 14 8 15 12 4 6 348 322 271 302 346 357 16 17 14 300 275 258 341 81 243 238 217 249 265 256 261 272 272 271 274 281 279 281 259 267 274 283 278 282
356 358 8 12 34 23 19 51 27 333 315 358 349 337 349 335 353 22 8 13 360 313 315 339 243 256 311 288 266 264 261 264 270 269 221 271 275 278 281 257 255 263 261 270 274
357 14 13 12 39 11 18 23 352 337 284 311 15 23 11 340 57 24 25 352 12 263 282 236 261 318 319 306 287 277 259 271 264 285 250 279 277 285 284 262 260 252 258 262 261
359 36 36 39 41 17 14 356 342 343 59 309 0 5 356 339 23 20 2 3 297 285 285 259 262 311 314 299 273 286 298 309 289 329 278 131 288 287 266 262 245 248 248 252 259
1 51 37 34 26 12 350 335 325 351 357 311 333 341 1 36 311 330 346 337 248 271 82 258 287 312 310 248 302 260 307 275 270 272 285 223 259 274 165 272 257 234 246 258 265
2 28 18 13 12 355 353 348 120 45 287 332 332 331 1 286 278 304 301 316 293 245 225 253 283 236 226 276 266 357 336 317 313 213 250 214 204 271 226 228 252 239 244 263 270
6 33 11 358 347 348 352 341 34 107 6 310 314 320 320 265 286 269 311 319 273 356 309 301 251 268 217 258 319 57 358 300 332 209 237 295 281 256 281 270 252 259 270 281 293
3 42 25 6 354 352 356 54 74 287 276 308 295 287 268 343 264 294 282 294 262 195 322 309 314 224 111 204 289 285 184 220 253 244 267 324 252 260 251 268 287 285 278 296 329
354 331 3 5 360 357 360 57 191 236 304 295 313 298 281 320 274 360 269 248 245 173 194 326 285 298 276 279 213 181 200 210 265 234 267 228 297 290 260 272 278 272 277 298 343
350 273 352 345 352 352 69 227 221 227 318 313 299 298 313 324 332 349 286 246 253 191 189 242 295 269 332 276 219 162 167 255 207 270 262 261 242 236 279 285 298 337 343 323 343
360 14 351 348 332 39 115 243 278 303 333 290 264 283 280 308 274 262 255 291 202 265 195 257 218 277 319 252 204 129 248 224 251 226 269 288 242 223 240 258 286 298 325 341 345
3 17 345 347 43 20 24 305 304 293 347 286 271 247 296 316 277 256 252 248 303 335 284 229 252 279 285 283 302 230 242 206 232 244 241 256 251 265 271 259 174 264 304 319 319
348 324 353 4 69 349 323 308 291 325 319 316 295 38 293 296 332 247 265 278 297 344 271 192 248 298 297 84 198 253 220 213 235 252 249 262 260 73 222 305 328 324 323 314 313
0 355 358 50 96 91 333 284 308 328 305 9 311 348 358 317 275 279 286 295 312 290 288 230 228 238 281 277 295 285 267 255 257 257 275 251 272 276 279 297 330 314 302 303 312
19 12 8 315 342 326 227 270 285 329 288 319 274 280 343 310 309 262 253 295 299 290 59 205 259 256 250 271 283 274 275 273 262 263 260 276 271 273 286 296 298 292 283 285 293
31 5 339 299 294 303 295 263 277 355 310 301 261 321 309 288 275 293 296 295 277 316 180 230 274 267 275 285 276 281 276 265 266 265 265 265 273 273 269 268 283 275 260 267 279
10 357 325 284 306 301 237 279 321 325 287 279 313 299 289 283 280 289 280 275 263 261 227 230 266 279 294 303 305 290 299 261 300 288 278 286 289 296 289 285 275 269 263 265 273